Koksijde, Belgium

5:19 AM CET on February 23, 2017 (GMT +0100)
Ostend

Weather History for EBOS - July, 2013

Change the Weather History Date:

Tuesday, July 16, 2013

  Actual Average Record
Temperature  
Mean Temperature 62 °F -  
Max Temperature 74 °F 68 °F 80 °F (2003)
Min Temperature 50 °F 54 °F 46 °F (2001)
Degree Days  
Heating Degree Days 3    
Growing Degree Days 12 (Base 50)    
Moisture  
Dew Point 55 °F    
Average Humidity 73    
Maximum Humidity 100    
Minimum Humidity 42    
Precipitation  
Precipitation 0.00 in - - ()
Sea Level Pressure  
Sea Level Pressure 30.24 in    
Wind  
Wind Speed 3 mph ()    
Max Wind Speed 11 mph    
Max Gust Speed -    
Visibility 3.7 miles    
Events Fog    
Averages and records for this station are not official NWS values.
T = Trace of Precipitation, MM = Missing Value Source: Averaged Metar Reports

Daily Weather History Graph

Daily Weather History Graph

Search for Another Location

Airport or City:

Trip Planner

Search our weather history database for the weather conditions in past years. The results will help you decide how hot, cold, wet, or windy it might be!

Date:

Astronomy

Jul. 16, 2013 Rise Set
Actual Time 5:51 AM CEST 9:56 PM CEST
Civil Twilight 5:07 AM CEST 10:40 PM CEST
Nautical Twilight 4:04 AM CEST 11:42 PM CEST
Astronomical Twilight 2:27 AM CEST 1:22 AM CEST
Moon 3:02 PM CEST (7/16) 12:36 AM CEST (7/16)
Length of Visible Light 17h 32m
Length of Day
16h 05m
First Quarter, 53% of the Moon is Illuminated
Jul 16
First Quarter
Jul 22
Full
Jul 29
Last Quarter
Aug 6
New
Aug 14
First Quarter

Hourly Weather History & Observations

Time (CEST) Temp. Dew Point Humidity Pressure Visibility Wind Dir Wind Speed Gust Speed Precip Events Conditions
12:00 AM 60 °F 56 °F 81% 30.25 in 4 mi NE 2.3 mph - - Fog Patches of Fog
12:20 AM 59.0 °F 55.4 °F 88% 30.24 in 4.3 mi NE 2.3 mph - N/A Fog Fog
12:50 AM 57.2 °F 53.6 °F 88% 30.24 in 3.7 mi Calm Calm - N/A Fog Fog
1:00 AM 57 °F 54 °F 88% 30.25 in 4 mi Calm Calm - - Fog Patches of Fog
1:20 AM 55.4 °F 53.6 °F 94% 30.24 in 2.5 mi South 1.2 mph - N/A Fog Fog
1:50 AM 53.6 °F 51.8 °F 94% 30.24 in 0.4 mi SE 1.2 mph - N/A Fog Patches of Fog
2:00 AM 54 °F 51 °F 86% 30.25 in 0 mi Calm Calm - - Fog Patches of Fog
2:20 AM 51.8 °F 51.8 °F 100% 30.24 in 0.3 mi SE 1.2 mph - N/A Fog Patches of Fog
2:50 AM 53.6 °F 53.6 °F 100% 30.24 in 1.2 mi East 1.2 mph - N/A Fog Patches of Fog
3:00 AM 54 °F 50 °F 83% 30.25 in 0 mi East 2.2 mph - - Fog Patches of Fog
3:20 AM 55.4 °F 55.4 °F 100% 30.24 in 1.2 mi Calm Calm - N/A Fog Patches of Fog
3:50 AM 51.8 °F 51.8 °F 100% 30.21 in 0.2 mi SSW 3.5 mph - N/A Fog Patches of Fog
4:00 AM 52 °F 52 °F 98% 30.24 in 0 mi SSW 4.5 mph - - Fog Patches of Fog
4:20 AM 50.0 °F 50.0 °F 100% 30.21 in 0.1 mi WSW 2.3 mph - N/A Fog Fog
4:50 AM 51.8 °F 51.8 °F 100% 30.21 in 0.1 mi Variable 2.3 mph - N/A Fog Fog
5:00 AM 52 °F 52 °F 98% 30.24 in 0 mi SW 1.2 mph - - Fog Partial Fog
5:20 AM 53.6 °F 53.6 °F 100% 30.21 in 0.1 mi SW 1.2 mph - N/A Fog Fog
5:50 AM 51.8 °F 51.8 °F 100% 30.24 in 0.2 mi SSW 1.2 mph - N/A Fog Fog
6:00 AM 52 °F 52 °F 100% 30.25 in 0 mi Calm Calm - - Fog Partial Fog
6:20 AM 51.8 °F 50.0 °F 94% 30.24 in 0.3 mi ESE 1.2 mph - N/A   Unknown
6:50 AM 53.6 °F 50.0 °F 88% 30.24 in 0.3 mi Variable 1.2 mph - N/A   Unknown
7:00 AM 53 °F 50 °F 87% 30.25 in 0 mi South 2.2 mph - - Fog Partial Fog
7:20 AM 55.4 °F 51.8 °F 88% 30.24 in 0.3 mi Variable 1.2 mph - N/A   Unknown
7:50 AM 57.2 °F 53.6 °F 88% 30.24 in 0.3 mi Variable 1.2 mph - N/A   Unknown
8:00 AM 57 °F 54 °F 85% 30.25 in 0 mi South 2.2 mph - - Fog Partial Fog
8:20 AM 60.8 °F 55.4 °F 82% 30.24 in 1.1 mi Variable 2.3 mph - N/A Fog Patches of Fog
8:50 AM 62.6 °F 57.2 °F 82% 30.24 in 1.9 mi Variable 2.3 mph - N/A   Mist
9:00 AM 63 °F 58 °F 78% 30.25 in 2 mi East 2.2 mph - -   Mist
9:20 AM 64.4 °F 59.0 °F 83% 30.24 in 3.7 mi East 3.5 mph - N/A   Unknown
9:50 AM 68.0 °F 59.0 °F 73% 30.24 in 3.7 mi East 3.5 mph - N/A   Unknown
10:00 AM 68 °F 60 °F 67% 30.26 in 4 mi East 1.2 mph - -   Clear
10:20 AM 69.8 °F 57.2 °F 64% 30.24 in 3.7 mi Variable 2.3 mph - N/A   Unknown
10:50 AM 71.6 °F 59.0 °F 64% 30.24 in 5.0 mi Variable 1.2 mph - N/A   Unknown
11:00 AM 71 °F 59 °F 58% 30.26 in 5 mi 2.2 mph - -   Partly Cloudy
11:20 AM 73.4 °F 59.0 °F 61% 30.24 in 5.0 mi Variable 1.2 mph - N/A   Unknown
11:50 AM 73.4 °F 60.8 °F 65% 30.24 in 5.0 mi Variable 3.5 mph - N/A   Unknown
12:00 PM 73 °F 61 °F 57% 30.25 in 5 mi 4.5 mph - -   Clear
12:20 PM 73.4 °F 59.0 °F 61% 30.24 in 5.6 mi North 6.9 mph - N/A   Unknown
12:50 PM 69.8 °F 59.0 °F 68% 30.24 in 5.6 mi North 6.9 mph - N/A   Unknown
1:00 PM 71 °F 59 °F 58% 30.26 in 6 mi North 3.5 mph - -   Scattered Clouds
1:20 PM 71.6 °F 59.0 °F 64% 30.24 in 5.6 mi North 6.9 mph - N/A   Unknown
1:50 PM 71.6 °F 59.0 °F 64% 30.24 in 5.6 mi North 8.1 mph - N/A   Unknown
2:00 PM 72 °F 59 °F 55% 30.26 in 6 mi North 8.9 mph - -   Partly Cloudy
2:20 PM 73.4 °F 57.2 °F 57% 30.24 in 5.6 mi North 8.1 mph - N/A   Unknown
2:50 PM 73.4 °F 55.4 °F 53% 30.24 in - North 10.4 mph - N/A   Clear
3:00 PM 73 °F 55 °F 42% 30.25 in 6 mi North 8.9 mph - -   Scattered Clouds
3:20 PM 73.4 °F 55.4 °F 53% 30.24 in - North 9.2 mph - N/A   Clear
3:50 PM 69.8 °F 57.2 °F 64% 30.24 in - North 10.4 mph - N/A   Clear
4:00 PM 70 °F 56 °F 53% 30.25 in 7 mi North 11.2 mph - -   Partly Cloudy
4:20 PM 71.6 °F 57.2 °F 60% 30.24 in - North 9.2 mph - N/A   Clear
4:50 PM 71.6 °F 57.2 °F 60% 30.24 in - NNE 8.1 mph - N/A   Clear
5:00 PM 72 °F 58 °F 52% 30.25 in 7 mi NNE 6.7 mph - -   Partly Cloudy
5:20 PM 71.6 °F 57.2 °F 60% 30.24 in - NNE 9.2 mph - N/A   Clear
5:50 PM 71.6 °F 57.2 °F 60% 30.24 in - NNE 8.1 mph - N/A   Clear
6:00 PM 72 °F 58 °F 51% 30.24 in 9 mi NNE 8.9 mph - -   Partly Cloudy
6:20 PM 69.8 °F 55.4 °F 60% 30.21 in - NNE 8.1 mph - N/A   Clear
6:50 PM 69.8 °F 55.4 °F 60% 30.21 in - NNE 9.2 mph - N/A   Clear
7:00 PM 69 °F 54 °F 50% 30.23 in 9 mi NNE 8.9 mph - -   Partly Cloudy
7:20 PM 69.8 °F 55.4 °F 60% 30.21 in - NNE 8.1 mph - N/A   Clear
7:50 PM 69.8 °F 55.4 °F 60% 30.21 in - NNE 9.2 mph - N/A   Clear
8:00 PM 69 °F 55 °F 52% 30.23 in 11 mi NNE 8.9 mph - -   Partly Cloudy
8:20 PM 68.0 °F 55.4 °F 64% 30.21 in - NE 8.1 mph - N/A   Clear
8:50 PM 68.0 °F 55.4 °F 64% 30.21 in - NNE 5.8 mph - N/A   Clear
9:00 PM 67 °F 55 °F 55% 30.23 in 11 mi NNE 3.5 mph - -   Partly Cloudy
9:20 PM 66.2 °F 55.4 °F 68% 30.21 in - NE 5.8 mph - N/A   Clear
9:50 PM 66.2 °F 53.6 °F 64% 30.21 in - NE 4.6 mph - N/A   Clear
10:00 PM 65 °F 54 °F 58% 30.24 in 12 mi NE 4.5 mph - -   Partly Cloudy
10:20 PM 64.4 °F 53.6 °F 68% 30.21 in - NNE 5.8 mph - N/A   Clear
10:50 PM 64.4 °F 55.4 °F 73% 30.24 in - NNE 5.8 mph - N/A   Clear
11:00 PM 64 °F 55 °F 64% 30.24 in 14 mi NNE 4.5 mph - -   Partly Cloudy
11:20 PM 64.4 °F 55.4 °F 73% 30.24 in - NE 4.6 mph - N/A   Clear
11:50 PM 64.4 °F 55.4 °F 73% 30.21 in - NE 5.8 mph - N/A   Clear